Temp
9 10 10 10 9 9 9 9 8 8 7 7 7 6 6 6 5 5 5 4 4 3 4 4 4 4 4 4 4 4 4 4 4 4 5 4 4 4 4 4 4 4 5 5 5 5 6 6 7
10 10 10 10 10 9 9 8 8 7 7 7 7 6 6 6 5 5 4 4 3 3 3 4 4 4 4 3 3 3 3 3 3 3 3 3 3 3 3 4 4 4 4 4 4 4 4 5 5
10 10 10 10 10 9 8 8 8 7 7 6 6 6 5 5 5 4 4 3 3 3 3 3 3 3 3 3 3 3 2 2 2 2 2 2 3 3 3 3 3 3 3 4 4 4 4 4 4
10 10 10 9 9 9 8 8 8 7 6 6 6 5 5 4 4 4 3 3 3 3 3 3 3 2 2 2 2 1 1 2 2 2 2 2 2 3 3 3 3 3 3 3 3 4 3 4 4
10 10 10 9 9 8 8 8 7 7 6 6 6 5 5 4 4 3 3 3 3 3 3 2 2 2 2 1 1 1 1 1 1 1 2 2 2 2 2 2 2 2 3 2 3 2 2 3 3
9 9 9 9 8 8 8 7 7 6 6 5 5 5 4 3 3 3 3 3 3 2 1 1 1 1 1 1 1 1 1 1 1 1 1 1 2 2 2 2 2 2 2 2 2 2 2 2 2
9 9 9 8 8 8 7 7 7 6 5 5 4 4 4 3 3 3 3 2 2 2 1 0 -0 -0 0 0 0 1 1 1 1 1 1 1 1 1 1 1 1 1 1 2 2 2 2 2 2
9 9 8 8 8 7 7 7 6 6 5 4 4 4 3 3 2 2 2 2 2 1 -0 -0 0 0 0 0 0 0 0 0 0 0 0 -0 -0 -0 0 0 0 1 1 1 1 1 2 2 2
9 8 8 8 7 7 7 6 6 5 4 4 3 3 3 2 2 2 2 2 0 -0 -1 -0 -0 -0 -0 -0 -0 -0 -0 -0 -0 -0 -1 -1 -1 -0 -0 -0 -0 -0 0 0 1 1 1 1 1
9 8 8 8 7 7 6 6 5 4 4 4 3 3 2 2 1 1 2 1 -1 -1 -1 -0 -0 -0 -0 -0 -0 -0 -1 -1 -1 -1 -1 -1 -1 -1 -1 -0 -0 -0 -0 -0 -0 -0 0 0 1
8 8 8 8 7 6 6 6 5 4 4 3 3 2 2 1 1 2 2 -0 -1 -1 -0 -0 -0 -0 -0 -1 -1 -1 -1 -1 -1 -1 -1 -1 -1 -1 -1 -1 -1 -1 -1 -1 -1 -1 -1 -1 -1
8 8 8 7 7 6 6 5 5 4 4 3 3 2 1 1 1 2 1 -0 -0 -0 -0 -0 -1 -1 -1 -1 -1 -1 -1 -1 -1 -2 -1 -1 -1 -1 -1 -1 -1 -1 -2 -2 -2 -2 -2 -2 -2
8 8 8 7 7 6 6 5 5 5 4 3 3 2 1 1 1 1 0 -0 -1 -1 -1 -1 -1 -1 -1 -1 -1 -1 -2 -2 -2 -2 -2 -1 -1 -1 -2 -2 -2 -2 -3 -3 -4 -3 -3 -3 -3
8 8 7 7 7 6 5 5 5 4 4 3 2 2 1 0 1 1 0 -0 -1 -1 -1 -1 -1 -1 -1 -1 -2 -2 -2 -2 -2 -2 -2 -2 -1 -1 -2 -2 -3 -3 -4 -4 -4 -4 -4 -4 -4
8 8 7 7 6 6 6 5 5 4 3 3 2 2 1 0 0 0 -0 -1 -1 -1 -1 -1 -1 -1 -1 -2 -2 -2 -2 -2 -2 -2 -2 -2 -2 -2 -3 -3 -3 -4 -5 -4 -5 -4 -4 -4 -5
8 7 7 7 7 6 5 5 4 4 3 3 2 1 0 0 0 -0 -0 -1 -1 -1 -1 -1 -1 -1 -2 -2 -2 -2 -2 -2 -2 -2 -2 -2 -3 -3 -3 -3 -4 -5 -5 -5 -5 -4 -5 -6 -6
8 7 7 7 6 6 5 5 4 4 3 3 2 1 0 0 0 -0 -1 -1 -1 -1 -1 -1 -1 -2 -2 -2 -2 -2 -2 -2 -2 -2 -2 -3 -3 -3 -3 -3 -5 -5 -5 -6 -6 -5 -5 -6 -7
7 7 7 6 6 6 6 4 4 4 4 3 2 1 0 -0 -0 -0 -1 -1 -1 -1 -1 -1 -2 -2 -2 -2 -2 -2 -2 -2 -3 -3 -3 -3 -3 -3 -3 -4 -5 -6 -6 -6 -6 -6 -7 -7 -7
7 7 7 6 6 6 6 5 4 5 5 4 3 1 0 -0 -0 -0 -1 -0 -1 -1 -1 -1 -2 -2 -2 -2 -2 -2 -2 -3 -3 -3 -3 -3 -3 -4 -4 -5 -6 -6 -6 -6 -7 -7 -8 -9 -9
8 7 7 7 6 6 6 6 6 6 6 5 4 2 0 -0 -0 -0 -0 -0 -0 -1 -1 -1 -1 -1 -2 -2 -2 -2 -2 -3 -3 -3 -3 -3 -4 -4 -5 -6 -6 -7 -7 -7 -8 -8 -8 -9 -9
7 7 7 6 6 6 7 7 7 6 6 5 3 2 0 -0 0 -0 -0 -0 -1 -1 -1 -1 -1 -1 -2 -2 -2 -3 -3 -3 -4 -4 -3 -3 -4 -4 -5 -6 -7 -7 -8 -8 -8 -8 -8 -9 -9
7 7 7 6 6 5 5 6 7 6 6 5 3 1 0 0 1 0 0 -0 -0 -1 -1 -1 -1 -1 -2 -2 -2 -2 -2 -3 -3 -3 -4 -4 -4 -5 -6 -6 -7 -7 -8 -8 -9 -9 -9 -9 -9
7 7 7 6 6 5 5 4 7 6 6 5 4 2 1 1 1 1 -0 0 -0 -0 -1 -1 -1 -1 -1 -2 -2 -2 -2 -3 -3 -4 -4 -4 -5 -5 -6 -6 -7 -8 -8 -9 -9 -9 -9 -10 -10
7 7 7 6 6 5 5 5 7 7 6 5 4 3 2 2 1 1 0 0 -0 -0 -1 -1 -1 -1 -1 -1 -2 -2 -2 -3 -3 -3 -4 -4 -5 -5 -6 -6 -7 -7 -8 -9 -9 -9 -9 -10 -10
7 7 7 7 5 6 4 4 8 7 6 5 4 4 3 2 2 1 1 0 0 -0 -0 -1 -1 -1 -1 -1 -2 -2 -2 -2 -3 -3 -4 -4 -5 -5 -6 -6 -7 -7 -8 -9 -9 -10 -10 -10 -10
6 7 7 7 5 4 5 6 8 7 6 6 5 4 4 3 2 2 1 1 1 0 -0 -0 -1 -1 -1 -1 -1 -2 -2 -2 -3 -3 -4 -4 -5 -5 -6 -6 -7 -7 -8 -9 -9 -10 -10 -10 -10
6 6 6 6 3 2 6 8 8 8 7 6 6 5 4 3 2 2 1 1 1 -0 -0 -1 -1 -1 -1 -1 -1 -2 -2 -2 -3 -3 -4 -4 -5 -5 -6 -6 -7 -7 -8 -8 -9 -9 -9 -10 -10
6 6 6 6 3 5 5 7 9 8 7 7 7 6 4 3 3 2 2 1 1 -0 -1 -1 -1 -1 -1 -1 -2 -2 -2 -2 -2 -3 -3 -4 -4 -5 -6 -6 -6 -7 -7 -8 -8 -9 -9 -10 -10
6 6 6 5 5 3 3 8 9 9 8 7 7 6 5 4 3 3 2 1 1 0 0 -0 -0 -0 -1 -1 -2 -2 -2 -2 -3 -3 -3 -4 -4 -5 -5 -6 -6 -6 -7 -7 -8 -8 -9 -9 -10
6 6 6 5 4 4 3 8 9 9 8 8 7 7 6 4 4 3 2 2 1 1 0 -0 -0 -1 -1 -1 -2 -2 -2 -2 -3 -3 -3 -4 -4 -4 -5 -6 -6 -7 -7 -7 -8 -8 -9 -9 -9
Height
3186 3185 3185 3185 3189 3186 3186 3188 3187 3187 3187 3186 3186 3187 3187 3186 3185 3188 3183 3182 3181 3180 3177 3175 3172 3171 3170 3168 3166 3164 3160 3159 3156 3153 3149 3148 3146 3145 3144 3142 3140 3140 3138 3137 3137 3137 3138 3140 3139
3185 3184 3184 3184 3186 3185 3185 3185 3186 3186 3186 3185 3185 3185 3185 3184 3183 3183 3181 3180 3178 3176 3174 3171 3170 3167 3164 3160 3158 3156 3154 3151 3149 3148 3146 3144 3141 3141 3139 3138 3136 3135 3133 3132 3132 3132 3131 3131 3133
3183 3183 3184 3184 3183 3184 3185 3184 3184 3184 3184 3184 3184 3184 3183 3182 3181 3180 3179 3177 3175 3173 3171 3167 3165 3162 3160 3157 3155 3151 3147 3146 3144 3143 3141 3140 3138 3136 3135 3134 3133 3131 3128 3127 3126 3126 3125 3125 3125
3182 3183 3184 3183 3182 3183 3183 3183 3183 3183 3183 3183 3183 3182 3181 3180 3178 3177 3176 3175 3173 3171 3168 3164 3160 3158 3155 3152 3149 3146 3145 3143 3141 3139 3137 3136 3134 3132 3130 3129 3127 3126 3125 3122 3121 3120 3119 3119 3118
3181 3181 3181 3180 3181 3181 3181 3181 3181 3182 3182 3182 3181 3180 3179 3177 3176 3175 3174 3173 3170 3168 3164 3161 3156 3152 3150 3148 3146 3144 3142 3140 3138 3136 3134 3132 3129 3128 3126 3124 3121 3119 3118 3118 3116 3114 3113 3112 3111
3180 3180 3180 3179 3179 3180 3180 3180 3180 3180 3180 3180 3179 3177 3177 3175 3174 3173 3172 3170 3166 3162 3159 3155 3152 3149 3147 3145 3143 3141 3139 3137 3135 3133 3130 3129 3127 3125 3122 3120 3118 3115 3112 3110 3109 3109 3107 3105 3104
3178 3178 3178 3178 3178 3178 3178 3178 3179 3179 3178 3178 3176 3175 3175 3173 3172 3170 3169 3165 3161 3157 3153 3150 3148 3146 3145 3143 3141 3139 3137 3134 3132 3130 3128 3126 3124 3122 3119 3117 3114 3112 3109 3105 3103 3101 3099 3099 3098
3176 3177 3176 3176 3176 3177 3176 3176 3177 3177 3176 3175 3174 3173 3172 3171 3170 3168 3165 3161 3156 3151 3149 3147 3146 3145 3143 3141 3139 3137 3135 3133 3131 3128 3125 3123 3120 3118 3115 3113 3111 3108 3104 3101 3097 3094 3091 3089 3089
3175 3176 3174 3174 3174 3174 3174 3175 3175 3174 3174 3173 3172 3171 3170 3169 3168 3166 3162 3156 3151 3149 3148 3146 3145 3143 3142 3140 3138 3135 3133 3130 3128 3126 3123 3120 3118 3115 3111 3108 3104 3101 3098 3094 3090 3086 3082 3080 3079
3174 3174 3173 3173 3172 3172 3173 3173 3172 3172 3172 3171 3170 3169 3168 3167 3165 3163 3158 3154 3150 3148 3147 3145 3144 3142 3140 3137 3135 3133 3130 3128 3125 3122 3120 3117 3114 3110 3106 3101 3097 3092 3088 3084 3081 3077 3074 3071 3069
3172 3172 3172 3172 3171 3171 3171 3170 3170 3170 3169 3169 3168 3167 3166 3165 3163 3160 3155 3151 3149 3147 3146 3144 3141 3140 3138 3134 3132 3130 3127 3124 3122 3119 3117 3113 3109 3104 3100 3094 3089 3084 3080 3075 3071 3068 3065 3063 3060
3172 3171 3171 3170 3170 3170 3169 3169 3168 3168 3168 3167 3166 3165 3164 3163 3161 3157 3153 3149 3147 3145 3143 3141 3140 3137 3134 3132 3130 3127 3124 3122 3119 3116 3112 3108 3104 3099 3093 3087 3081 3076 3071 3067 3062 3059 3055 3052 3050
3171 3170 3170 3169 3169 3169 3168 3168 3167 3166 3166 3165 3164 3163 3162 3161 3159 3155 3151 3148 3145 3144 3142 3139 3137 3135 3133 3131 3128 3124 3121 3118 3115 3111 3107 3103 3098 3092 3087 3080 3075 3069 3063 3058 3054 3051 3048 3045 3041
3171 3170 3169 3169 3168 3168 3167 3167 3165 3165 3164 3164 3162 3161 3160 3159 3156 3152 3148 3146 3145 3143 3141 3139 3136 3134 3131 3128 3125 3122 3118 3115 3111 3107 3103 3097 3092 3085 3079 3074 3068 3062 3057 3052 3047 3043 3041 3038 3033
3170 3170 3169 3168 3167 3167 3166 3165 3164 3163 3163 3161 3160 3159 3158 3157 3154 3149 3147 3145 3143 3142 3140 3138 3135 3132 3129 3126 3122 3119 3115 3111 3107 3103 3098 3092 3086 3080 3073 3067 3061 3055 3050 3046 3043 3039 3034 3029 3023
3169 3169 3168 3167 3166 3165 3165 3163 3162 3161 3161 3159 3158 3157 3156 3155 3151 3148 3146 3144 3142 3140 3138 3136 3134 3131 3127 3123 3119 3115 3111 3107 3103 3099 3094 3088 3080 3074 3067 3060 3053 3049 3045 3042 3037 3032 3027 3021 3016
3169 3168 3167 3166 3165 3164 3163 3161 3160 3159 3158 3157 3156 3155 3154 3152 3149 3146 3144 3143 3141 3139 3137 3134 3132 3128 3125 3121 3116 3112 3108 3105 3101 3097 3090 3083 3075 3068 3061 3054 3048 3045 3041 3037 3032 3027 3021 3015 3011
3167 3167 3165 3165 3164 3162 3160 3159 3157 3156 3156 3155 3153 3152 3151 3149 3147 3145 3143 3141 3140 3138 3135 3133 3130 3127 3123 3118 3114 3110 3106 3102 3098 3092 3085 3079 3071 3065 3057 3052 3047 3043 3038 3034 3028 3023 3016 3010 3006
3166 3165 3164 3162 3161 3159 3156 3156 3154 3153 3154 3152 3150 3149 3148 3147 3145 3143 3141 3140 3138 3136 3133 3131 3128 3125 3122 3118 3114 3110 3106 3101 3095 3090 3083 3075 3068 3062 3055 3049 3044 3039 3035 3030 3025 3020 3014 3009 3003
3164 3163 3162 3161 3159 3157 3154 3153 3151 3151 3152 3150 3148 3147 3147 3145 3143 3141 3140 3138 3137 3135 3133 3130 3127 3124 3120 3116 3112 3108 3104 3099 3093 3087 3081 3075 3067 3060 3052 3046 3041 3036 3032 3027 3022 3016 3012 3007 3000
3163 3161 3160 3159 3156 3155 3152 3150 3150 3151 3150 3148 3146 3144 3144 3142 3141 3139 3138 3137 3135 3133 3131 3129 3126 3122 3119 3115 3111 3107 3102 3098 3093 3088 3082 3074 3066 3058 3052 3045 3038 3033 3029 3024 3019 3014 3010 3005 3000
3161 3160 3158 3156 3155 3154 3153 3152 3149 3149 3148 3146 3143 3142 3140 3140 3139 3138 3137 3135 3133 3132 3130 3127 3124 3122 3119 3115 3111 3108 3104 3099 3093 3087 3080 3073 3066 3059 3051 3043 3037 3032 3026 3021 3017 3013 3008 3003 2998
3161 3158 3157 3154 3152 3152 3152 3152 3147 3148 3147 3144 3141 3138 3137 3137 3137 3136 3135 3134 3132 3131 3129 3128 3124 3121 3118 3115 3111 3107 3102 3098 3093 3086 3080 3074 3066 3059 3052 3045 3038 3031 3025 3018 3014 3010 3006 3002 2997
3159 3157 3154 3152 3151 3151 3151 3153 3146 3146 3145 3142 3139 3136 3135 3135 3135 3134 3133 3133 3131 3130 3129 3126 3123 3120 3117 3114 3110 3107 3102 3098 3092 3087 3081 3075 3068 3061 3054 3046 3038 3031 3024 3018 3013 3008 3004 2999 2995
3157 3155 3154 3153 3151 3151 3149 3149 3144 3144 3143 3140 3137 3134 3133 3133 3132 3131 3132 3131 3130 3128 3126 3124 3121 3119 3116 3113 3109 3106 3101 3097 3092 3087 3081 3076 3070 3063 3056 3048 3040 3032 3025 3018 3012 3007 3002 2997 2992
3156 3156 3154 3155 3155 3151 3147 3144 3143 3142 3141 3138 3135 3133 3131 3131 3130 3130 3129 3128 3127 3126 3124 3122 3120 3118 3115 3112 3109 3105 3100 3096 3091 3085 3080 3074 3068 3062 3055 3048 3041 3034 3027 3020 3013 3006 3000 2996 2991
3155 3155 3155 3153 3153 3152 3145 3142 3140 3139 3138 3136 3133 3131 3129 3129 3128 3127 3127 3126 3125 3123 3122 3120 3118 3116 3114 3111 3108 3104 3100 3095 3090 3085 3080 3074 3068 3063 3057 3050 3043 3036 3029 3021 3014 3008 3001 2996 2990
3154 3155 3153 3152 3153 3150 3142 3139 3137 3136 3135 3134 3131 3129 3127 3126 3126 3125 3125 3124 3123 3121 3120 3119 3116 3114 3112 3109 3106 3103 3099 3095 3091 3086 3080 3075 3069 3064 3057 3051 3045 3038 3031 3024 3017 3010 3003 2997 2991
3152 3152 3152 3151 3151 3149 3148 3136 3134 3133 3132 3131 3129 3127 3125 3124 3123 3123 3123 3122 3120 3120 3118 3118 3116 3114 3112 3109 3105 3102 3098 3095 3090 3086 3081 3076 3071 3065 3059 3052 3046 3040 3034 3026 3019 3012 3004 2997 2991
3149 3149 3150 3150 3149 3147 3146 3134 3131 3130 3129 3128 3127 3125 3123 3122 3121 3120 3120 3119 3119 3118 3116 3115 3114 3111 3109 3107 3104 3101 3098 3095 3091 3086 3081 3076 3071 3066 3060 3053 3047 3041 3035 3029 3021 3014 3007 3000 2994
Wind_Speed
11 10 9 5 2 2 2 3 5 7 6 5 7 8 10 11 11 10 14 14 14 17 20 23 27 28 29 30 30 30 33 33 34 34 34 31 30 28 26 26 27 27 29 28 27 28 26 30 38
11 6 5 4 5 5 5 6 6 6 8 9 10 12 11 14 12 13 13 14 16 20 23 26 28 31 32 33 33 35 37 34 28 24 21 22 23 24 24 25 26 26 28 28 28 27 28 27 27
7 5 6 6 7 7 5 6 6 7 7 9 10 11 14 11 12 12 13 16 19 21 26 30 31 31 31 34 36 34 27 21 21 20 20 20 21 22 23 24 24 25 27 28 29 29 28 29 28
6 8 8 8 10 9 8 8 7 7 8 9 11 12 12 13 11 12 15 16 21 25 27 30 32 34 36 35 25 18 17 18 20 21 21 22 22 23 24 25 26 25 26 27 29 29 30 30 30
8 9 10 11 10 10 8 7 8 8 9 10 13 14 14 13 14 14 16 20 23 26 29 32 36 35 26 16 15 16 17 18 19 20 20 21 23 23 24 25 26 27 27 27 28 27 29 29 29
7 8 8 9 9 9 7 9 9 8 10 11 14 14 14 13 12 15 17 22 28 31 33 30 22 16 14 15 16 17 17 18 19 19 20 21 21 22 23 24 26 28 29 31 31 30 29 30 31
7 8 9 9 9 9 9 8 9 10 11 13 15 15 13 11 14 15 21 28 32 32 27 19 14 14 15 15 16 17 17 18 19 19 19 20 20 21 23 24 26 28 30 33 34 35 34 33 33
8 8 8 7 6 7 6 8 9 11 12 15 14 9 12 13 12 17 25 31 31 27 20 15 14 14 14 14 15 16 17 17 17 18 19 20 20 21 22 24 26 28 31 33 35 37 39 39 36
8 6 6 6 6 6 7 9 10 11 13 13 12 11 12 11 11 20 30 32 27 19 14 13 13 14 14 14 15 16 16 16 17 18 18 19 21 23 26 28 29 31 33 34 36 37 39 40 39
6 6 6 7 7 7 8 8 9 11 11 11 11 11 10 9 13 24 31 25 16 13 12 13 14 14 14 15 15 16 17 18 18 18 19 21 24 27 30 33 35 37 37 37 37 37 38 40 41
6 6 5 6 6 5 6 7 9 10 10 10 11 10 10 9 16 27 28 18 14 12 12 12 13 14 15 16 17 17 18 19 19 19 21 24 28 31 34 36 37 38 38 38 37 38 38 39 42
6 4 5 6 5 4 6 8 9 10 10 11 10 10 10 10 19 29 22 16 14 13 13 14 14 15 16 16 16 18 19 19 20 22 25 27 30 33 35 37 38 38 38 37 37 37 38 40 42
4 4 5 6 4 5 7 8 9 9 9 9 9 10 10 12 20 27 16 14 13 13 14 14 15 16 16 16 18 20 20 20 22 25 28 30 32 33 35 36 38 36 36 37 33 32 32 34 38
4 5 4 6 4 7 9 10 10 8 9 8 10 10 11 12 21 24 14 14 12 12 13 14 15 16 16 18 20 20 20 22 24 26 28 30 32 35 37 36 33 34 32 27 28 29 30 30 34
4 4 4 5 7 8 11 9 8 8 8 9 10 11 11 11 21 20 13 13 11 12 13 14 15 14 16 18 18 20 21 22 23 25 27 30 33 35 33 33 34 30 23 24 26 27 31 35 36
5 3 6 7 8 10 11 10 8 10 10 10 11 11 10 12 22 15 13 12 11 12 13 14 14 15 17 18 20 21 21 22 24 26 28 32 33 31 33 36 29 20 22 23 25 29 32 31 31
3 6 7 7 9 12 11 12 11 12 11 10 11 11 9 13 21 11 12 10 11 12 14 14 15 17 18 21 22 21 21 22 23 25 29 31 30 31 34 29 20 20 22 22 24 28 28 27 25
6 7 8 9 10 13 15 10 13 12 10 10 11 10 9 13 18 10 10 9 10 12 13 14 16 18 20 21 21 22 23 22 24 28 31 32 30 31 31 24 20 21 22 23 24 26 25 26 27
7 8 10 11 11 17 14 11 14 12 8 10 12 10 10 14 14 10 9 9 10 12 13 15 17 18 19 18 17 19 19 21 25 27 30 32 32 31 31 26 22 21 23 24 25 24 24 22 26
8 10 10 9 14 17 15 14 11 6 5 10 12 10 9 13 9 8 8 8 10 11 13 15 16 18 17 17 19 20 20 23 25 28 31 31 31 31 31 29 24 22 22 23 24 24 22 20 24
9 10 10 13 16 14 13 4 7 4 10 11 9 9 9 10 7 7 7 7 9 11 13 14 15 16 16 18 19 20 22 22 23 25 27 29 32 31 32 31 29 23 23 22 22 22 21 21 23
10 10 12 15 14 5 10 5 2 4 11 12 11 8 7 5 4 6 5 7 9 10 12 12 14 15 15 17 18 19 20 22 24 26 28 30 31 33 34 33 30 26 24 23 20 20 22 22 23
8 12 14 16 9 7 3 4 2 4 12 15 13 9 4 2 4 5 4 6 8 9 10 12 13 13 15 17 17 19 20 22 24 26 27 28 30 32 34 34 31 27 27 24 21 21 20 20 20
8 11 15 7 5 1 1 6 3 5 12 16 13 9 2 1 3 4 4 5 7 9 10 11 12 12 13 15 16 18 19 21 23 24 26 28 28 29 31 33 32 29 28 24 19 20 20 19 19
4 8 4 2 2 2 5 7 3 7 12 15 13 10 3 2 3 3 4 5 6 7 8 10 11 11 13 14 16 18 20 21 22 23 25 26 26 26 27 30 33 31 28 26 22 19 19 19 18
7 2 1 2 2 5 9 5 3 8 12 14 15 10 3 1 2 3 3 4 6 6 8 9 9 10 11 14 16 18 19 21 22 23 24 26 28 30 30 31 32 32 31 29 25 22 20 18 17
3 3 2 3 3 4 4 6 7 4 11 15 15 11 4 1 1 2 3 4 5 4 5 7 8 9 11 13 15 17 18 20 22 23 25 26 27 27 28 28 29 30 30 29 28 26 24 21 17
8 5 2 2 1 3 5 8 5 8 12 15 16 12 5 2 1 2 3 4 5 5 5 6 7 8 9 11 13 15 16 18 20 22 24 25 25 25 26 27 27 27 28 29 28 26 26 24 21
6 6 4 3 3 4 2 5 5 10 13 16 16 13 6 2 2 2 3 4 3 5 5 7 8 8 9 10 12 13 14 16 18 20 22 24 25 24 25 25 26 26 27 27 27 28 26 25 24
10 11 10 5 4 6 3 9 4 10 15 15 17 13 7 3 3 4 4 3 4 4 3 5 6 6 7 8 11 12 14 15 17 19 21 23 24 25 25 25 25 25 25 25 26 27 29 28 25
Wind_Direction
287 283 306 301 231 221 214 240 270 273 278 303 309 310 303 300 295 278 301 296 294 292 294 295 298 299 298 298 300 300 300 301 300 299 299 300 298 299 300 300 299 300 296 297 294 289 278 261 255
288 286 309 299 256 259 272 277 297 282 288 295 297 302 303 304 305 300 301 298 297 298 299 299 299 300 302 305 306 306 304 304 301 301 302 302 301 304 302 302 300 299 297 295 293 291 290 283 267
273 291 283 276 266 269 268 285 287 280 283 290 300 305 310 314 312 300 298 298 298 300 302 301 303 304 304 304 304 305 306 310 312 312 311 308 306 304 302 301 299 298 295 295 293 291 287 285 280
272 270 277 254 263 267 268 282 279 284 289 303 310 313 311 315 308 300 299 302 305 305 305 305 305 305 306 307 309 312 314 315 315 314 313 311 308 306 303 302 301 298 296 295 292 290 289 284 281
272 275 267 263 268 270 273 273 285 285 291 307 317 313 309 306 304 307 310 310 312 311 308 305 303 305 309 315 319 319 318 316 315 315 312 310 309 308 308 307 306 303 300 297 294 292 290 287 283
289 275 269 272 277 280 271 278 280 283 292 303 310 307 305 303 306 310 315 321 319 314 310 310 312 316 321 324 323 321 320 319 317 314 313 313 313 312 311 309 307 306 304 302 298 293 290 287 283
287 283 277 278 280 279 274 281 290 288 293 301 305 303 304 307 311 319 329 327 321 317 320 326 331 331 329 326 322 320 319 318 317 316 317 316 314 312 311 311 310 308 306 303 300 297 292 286 283
297 290 288 285 278 268 280 287 287 291 290 295 301 298 303 304 313 330 331 327 324 327 331 334 332 326 323 320 319 319 318 318 318 319 318 317 317 315 313 311 309 306 304 301 297 294 291 287 284
295 282 287 293 297 298 291 286 286 279 280 290 292 289 296 305 319 330 333 332 330 330 329 325 322 321 320 321 321 320 320 319 319 318 316 313 312 311 311 310 308 307 304 301 297 293 288 285 282
313 295 293 292 289 287 285 280 271 273 285 290 288 292 293 296 322 334 338 334 332 331 330 325 322 323 326 326 327 325 323 321 320 317 313 311 311 313 313 313 311 308 306 303 299 294 289 285 282
318 311 308 298 288 290 287 282 280 287 292 288 294 293 289 284 325 338 341 345 345 336 330 328 329 330 330 332 330 330 326 322 318 314 313 313 315 315 315 315 313 309 307 305 302 298 293 289 285
336 335 335 319 298 293 295 298 297 298 292 295 291 288 284 282 326 340 344 348 343 336 333 334 335 335 336 335 334 330 325 320 316 315 314 315 316 318 318 316 314 313 311 307 303 298 295 292 289
355 358 345 329 291 278 302 300 306 300 300 294 294 292 287 289 329 339 344 341 337 336 338 340 338 338 338 338 334 330 327 322 319 317 318 320 322 322 321 318 316 314 312 307 304 304 305 302 298
350 345 326 340 296 292 299 306 303 301 301 300 298 300 297 298 332 343 337 338 338 337 340 339 338 340 342 337 335 333 330 328 325 324 327 328 327 326 322 320 318 315 312 309 309 310 308 307 304
344 332 307 329 319 307 311 305 308 296 310 306 302 303 299 312 335 340 331 335 339 342 341 340 343 344 341 338 337 336 335 332 333 335 335 333 331 327 326 324 319 318 314 313 314 315 313 306 302
330 334 325 326 324 323 317 308 311 309 312 303 296 297 307 321 340 334 332 337 344 342 345 346 347 345 343 340 341 342 341 343 343 344 340 338 334 333 333 329 328 327 324 325 328 327 321 316 310
332 318 322 323 322 318 317 306 307 306 308 305 299 296 310 325 337 330 337 343 345 346 347 349 350 348 346 345 346 348 349 349 349 347 346 343 342 342 341 340 340 333 330 330 333 337 331 329 321
319 329 327 325 321 321 316 306 300 303 310 303 300 294 308 324 334 334 344 349 347 349 351 354 351 349 350 350 354 352 351 351 352 355 353 352 349 348 350 346 337 334 337 333 335 340 336 334 327
326 329 326 325 324 326 319 315 299 308 315 317 304 297 305 321 334 341 346 350 351 350 356 354 352 352 355 358 356 354 353 356 357 355 357 358 355 353 355 346 337 338 337 338 341 339 341 331 328
324 325 326 331 329 327 317 319 299 315 352 323 301 297 301 318 334 340 348 355 350 352 0 355 354 356 359 359 2 1 1 359 358 358 0 1 0 358 356 354 343 336 338 339 343 340 346 343 336
320 322 325 325 327 327 335 350 2 52 3 341 317 295 299 317 331 342 347 354 353 1 359 356 355 359 1 6 7 5 4 0 359 359 1 5 6 3 359 354 352 342 332 335 344 349 345 344 346
316 326 321 321 327 315 337 307 33 27 0 353 345 321 310 317 333 339 347 353 0 1 356 353 357 1 3 9 9 8 7 5 4 3 5 6 6 6 4 359 352 347 337 327 327 340 347 342 347
307 320 317 317 318 318 340 325 282 358 358 357 351 333 325 331 341 339 349 356 360 354 352 356 360 360 4 10 8 7 7 8 8 7 7 7 6 6 6 3 358 350 345 333 321 319 324 330 338
304 320 316 318 325 328 277 357 262 338 358 353 355 350 3 27 347 345 354 359 357 353 352 357 358 358 4 10 9 9 9 9 9 9 9 9 10 8 6 6 4 1 357 352 338 331 329 325 326
292 328 331 335 357 250 288 304 279 339 352 358 357 7 15 30 359 350 355 352 351 351 350 356 357 356 3 11 12 14 13 13 11 12 12 11 11 11 9 9 9 7 6 3 355 343 336 332 331
298 320 75 262 282 298 291 245 309 328 353 7 0 13 26 35 9 346 334 338 340 350 354 353 353 354 5 13 13 15 14 15 15 14 14 12 11 11 11 11 9 8 9 7 4 358 351 344 333
241 256 292 229 282 296 264 288 300 329 358 11 7 8 32 19 356 313 309 316 330 340 348 346 354 359 5 9 13 14 15 16 15 13 14 15 13 11 10 11 11 8 11 10 8 5 2 358 350
246 247 276 226 156 278 277 280 277 342 355 8 10 7 16 360 278 271 288 305 325 329 331 343 353 1 4 6 11 14 14 15 14 15 14 15 14 12 10 11 11 10 10 12 13 11 10 5 3
248 239 244 241 216 187 301 275 285 342 350 357 7 4 358 345 257 236 276 283 318 339 341 351 356 357 1 0 8 13 12 16 14 14 13 14 13 13 11 10 11 12 10 11 14 15 16 16 12
255 254 244 244 227 217 233 275 228 332 335 343 351 356 344 320 250 236 244 265 304 339 338 357 357 356 359 358 3 10 10 13 13 12 11 12 12 13 14 12 12 11 10 10 16 17 20 20 18